Wind_Speed
11 10 10 10 10 11 11 11 11 11 11 9 8 7 6 4 3 2 1 1 1 2 4 5 7 8 10 11 11 12 13 14 16 22 25 24 27 30 31 32 31 28 33
9 10 9 9 10 11 11 12 12 11 11 10 8 7 5 4 3 2 0 1 3 4 5 7 9 10 12 13 13 15 16 17 20 22 24 27 27 25 26 28 29 31 32
13 12 12 13 13 12 12 12 12 11 10 9 8 7 7 6 4 2 1 1 3 3 5 7 9 10 12 14 16 19 20 19 21 23 23 24 28 28 27 25 26 25 26
15 15 16 16 16 16 15 15 13 12 11 9 8 8 7 6 4 3 1 0 2 4 5 7 8 10 12 17 18 19 22 23 21 23 23 21 25 28 28 24 22 21 24
18 19 19 18 17 17 17 16 15 14 12 11 10 9 8 7 6 4 3 1 2 3 5 6 6 10 11 16 17 19 21 19 17 20 24 24 24 27 25 24 21 19 21
21 21 20 20 20 19 18 17 16 15 13 12 12 11 10 9 11 7 5 3 3 3 4 5 9 7 10 12 15 17 17 17 17 20 19 22 24 27 27 26 21 7 4
24 24 22 22 22 22 20 19 19 17 15 14 13 13 12 11 12 10 7 6 5 4 5 6 7 7 8 12 16 17 16 13 15 18 20 23 25 26 27 24 17 16 7
26 25 25 25 25 23 22 22 20 18 17 16 15 14 13 12 13 12 11 9 8 5 4 4 4 7 6 12 15 10 13 19 16 18 17 17 18 19 19 19 14 6 6
26 28 28 27 27 26 25 24 22 20 18 18 16 15 15 14 14 14 14 12 10 7 6 5 5 5 6 11 10 12 13 15 18 15 16 15 16 17 11 1 9 12 3
22 26 28 29 29 29 27 25 22 21 19 18 17 15 15 13 14 13 16 13 10 9 8 8 9 5 8 8 7 10 16 24 21 20 14 8 13 12 14 14 8 5 8
18 21 26 30 31 31 28 25 23 22 19 19 18 16 16 15 13 13 17 15 11 10 8 8 9 7 5 5 6 10 15 17 14 15 10 4 5 13 10 10 8 8 7
18 17 21 27 31 32 31 28 25 23 21 21 20 18 18 16 16 15 16 20 13 11 8 7 6 9 8 7 8 12 11 13 8 10 9 11 12 10 10 8 8 11 12
18 19 21 25 29 32 31 31 28 26 24 24 23 21 19 17 15 18 17 19 21 15 11 10 11 11 13 11 10 14 10 10 8 8 7 3 0 3 2 1 0 1 2
20 18 21 23 26 29 31 31 29 29 27 25 25 23 21 18 16 15 18 18 20 18 16 17 15 13 14 15 14 13 9 8 8 9 10 10 8 6 7 4 5 3 3
24 20 19 23 25 26 31 32 32 30 29 27 27 26 23 21 20 19 19 18 17 17 14 15 15 13 12 13 11 10 10 8 8 6 7 7 8 7 8 6 7 7 7
26 22 18 20 23 26 28 25 27 23 30 29 25 26 24 22 23 24 23 19 16 9 14 15 15 14 13 12 11 10 10 9 10 9 8 7 7 6 5 5 5 5 6
25 24 18 18 19 23 26 28 26 32 22 27 31 29 25 25 20 23 22 20 19 18 17 18 18 17 16 13 12 12 11 10 9 11 12 10 9 8 7 8 8 8 9
23 20 17 14 18 22 22 22 23 25 25 23 32 36 33 26 22 23 21 18 16 21 21 21 21 19 18 17 15 13 13 12 12 14 14 14 13 13 12 12 12 11 12
22 20 17 16 17 17 20 25 24 23 24 27 31 35 39 37 33 27 25 22 23 25 24 24 23 22 21 20 17 17 15 15 15 14 15 16 16 17 17 17 17 17 16
19 20 21 21 20 18 14 16 19 24 24 25 25 28 29 34 27 27 27 27 27 28 26 25 24 24 22 21 20 20 19 18 18 18 18 18 18 18 19 19 19 19 19
23 16 14 16 19 19 17 15 18 19 18 23 25 26 27 27 31 30 29 29 30 31 30 29 27 26 25 24 23 22 22 20 19 19 18 18 18 18 18 18 19 20 20
26 22 15 13 9 7 8 16 15 15 23 19 20 24 25 25 23 25 27 28 28 30 29 28 28 27 27 26 25 23 23 23 22 21 21 20 20 19 19 19 21 21 22
30 27 25 25 21 23 22 27 21 20 18 17 14 16 5 10 13 8 5 5 7 9 13 16 24 26 24 24 25 25 25 25 25 24 23 22 22 22 22 23 24 24 24
26 28 27 26 28 27 27 28 27 27 26 26 28 25 22 18 14 10 8 6 5 7 9 11 12 13 17 22 25 25 27 28 26 26 24 25 24 24 25 26 25 23 24
23 23 25 26 26 25 24 23 22 25 25 24 25 24 23 22 19 17 16 14 12 11 12 14 15 17 20 22 25 23 28 27 21 25 20 22 23 24 25 25 22 22 21
22 22 21 20 20 21 21 19 20 21 20 20 19 17 16 16 15 16 14 14 12 11 12 11 13 18 20 20 21 27 29 28 28 30 27 26 24 24 23 24 23 21 18
Wind_Direction
168 168 171 170 168 165 163 159 159 157 156 153 152 144 134 128 115 109 110 17 318 312 309 304 304 304 301 297 293 288 283 278 278 286 285 285 285 288 287 279 275 266 259
187 181 185 186 179 175 170 167 166 166 163 162 159 156 153 153 150 147 122 348 336 327 320 311 307 307 304 299 293 289 287 286 287 292 296 294 289 285 281 280 280 271 269
196 194 198 199 191 188 181 176 175 174 175 174 171 170 170 169 162 149 101 352 336 332 324 321 321 321 314 307 300 296 291 286 283 286 291 296 295 293 286 278 271 271 268
199 203 205 205 200 194 187 184 183 184 185 187 188 188 183 179 178 175 163 83 353 343 333 327 324 322 321 318 310 302 294 283 285 290 294 298 299 298 286 278 274 266 273
207 209 210 207 205 200 194 190 190 191 195 196 198 199 195 192 196 192 194 178 310 321 335 327 338 322 326 322 314 314 313 296 293 297 299 306 307 296 286 278 271 268 264
218 215 213 208 205 203 200 196 196 198 198 205 206 207 203 207 211 203 185 238 272 312 330 334 332 348 343 352 355 347 329 315 304 309 307 303 310 306 293 281 276 229 255
220 221 212 211 210 205 202 202 201 203 204 208 212 213 215 210 220 217 203 224 253 288 305 327 338 326 338 335 332 357 9 3 344 320 306 307 316 308 303 296 251 245 228
226 223 217 212 212 208 203 204 206 207 212 215 212 218 216 216 220 223 218 223 247 262 280 310 309 327 318 334 338 332 347 355 344 339 328 320 331 335 303 289 262 200 162
233 227 223 216 212 209 207 204 206 208 213 216 216 216 211 213 223 226 210 221 238 247 258 247 274 313 321 353 353 6 336 343 346 331 335 334 334 342 6 69 136 128 83
239 235 228 222 216 213 211 204 203 206 213 216 217 215 212 215 219 220 203 223 221 233 226 239 246 268 298 339 341 346 342 333 336 343 337 343 12 24 43 56 92 93 109
255 249 233 225 219 217 213 206 203 202 209 215 217 214 213 212 214 220 209 218 220 224 237 239 227 263 270 328 308 322 324 329 346 1 2 312 339 5 44 65 65 65 87
270 255 247 234 223 218 212 205 203 198 204 212 217 217 216 215 213 221 214 209 223 229 235 225 233 248 266 266 289 318 325 328 342 351 358 58 63 54 86 81 60 55 84
278 265 250 237 221 217 211 205 200 196 202 208 213 213 213 209 209 210 214 216 218 225 220 220 230 249 254 269 291 300 300 284 298 283 304 298 211 257 281 248 133 70 128
271 272 263 235 222 215 212 207 201 197 199 207 211 207 208 203 200 195 201 214 216 226 230 238 233 234 247 265 280 285 276 292 297 297 303 310 305 285 293 304 313 306 281
271 267 261 256 229 213 212 206 203 204 195 205 211 205 197 197 195 186 182 192 200 207 205 221 221 227 238 253 262 272 271 270 256 264 276 286 286 285 284 278 270 267 257
271 265 255 243 230 219 211 211 212 213 203 204 221 212 201 199 190 190 191 196 202 204 210 227 231 237 243 256 269 274 266 239 247 248 253 252 261 265 259 242 243 250 256
292 267 259 243 228 225 216 207 191 216 219 217 221 219 205 201 187 194 198 204 217 225 233 243 239 245 247 251 255 264 267 261 251 256 261 258 257 257 248 250 245 243 244
301 312 267 258 232 224 223 215 203 186 201 210 222 221 214 213 197 203 209 217 222 231 236 238 243 239 248 255 253 249 255 256 248 250 259 260 259 258 261 257 256 257 265
293 288 279 273 260 234 225 218 212 203 192 206 215 218 219 225 226 226 224 222 226 233 230 234 242 248 246 252 256 255 255 254 253 253 251 253 256 257 258 260 263 262 267
301 282 276 269 269 242 236 231 223 218 220 220 214 210 209 213 215 217 219 221 227 237 244 244 242 241 243 250 252 249 252 251 247 247 249 253 253 254 259 264 265 265 266
348 326 289 273 258 252 220 229 234 250 250 214 215 213 206 196 209 213 216 217 225 233 238 242 244 243 242 247 253 253 252 246 245 250 252 250 248 250 250 255 261 264 267
5 10 19 35 34 20 272 216 229 246 245 249 221 211 208 210 210 210 218 224 225 227 236 242 246 248 248 251 256 250 244 249 250 248 249 251 253 252 253 256 259 261 264
15 18 29 39 45 55 53 58 57 68 60 71 61 55 74 196 223 236 266 261 272 264 256 257 252 254 258 260 258 258 258 252 250 252 254 253 253 254 254 254 258 261 264
21 25 30 33 40 46 48 51 50 54 56 60 66 62 53 54 50 40 31 15 343 313 305 301 292 281 283 270 260 259 257 255 256 258 253 253 256 255 255 259 261 263 267
27 27 27 32 34 36 39 43 48 48 50 50 53 54 52 50 47 39 29 16 359 338 317 306 299 292 285 285 287 277 275 273 260 251 255 253 254 256 258 259 255 258 259
27 29 31 33 35 37 37 39 45 49 45 44 43 44 45 40 35 30 25 20 2 350 340 324 307 303 296 284 282 278 273 265 262 260 256 256 254 254 254 254 252 248 245
Height
814 817 820 822 823 825 826 828 830 833 835 837 839 840 840 841 841 842 842 842 841 841 841 841 840 838 836 835 833 830 828 827 820 814 812 809 805 801 797 795 794 791 792
814 816 819 822 823 825 826 828 830 833 834 835 837 838 838 839 840 841 840 840 839 839 838 838 837 836 835 832 829 828 825 823 820 811 809 804 799 796 793 790 786 785 785
812 815 818 821 822 824 825 827 829 832 833 834 835 835 836 838 838 838 838 837 837 836 836 836 835 835 833 831 827 824 821 818 814 809 803 802 797 792 786 784 782 780 777
808 812 815 818 819 821 822 825 827 829 831 832 834 834 834 835 836 836 836 836 836 835 835 835 833 833 831 829 825 821 818 814 810 805 799 795 794 789 783 778 774 773 772
806 809 811 813 816 818 819 821 823 825 828 829 831 832 832 832 833 833 834 834 835 834 833 833 832 831 829 828 824 819 814 811 809 804 797 791 789 785 778 773 770 769 766
802 804 807 808 810 813 815 817 819 821 823 826 827 828 828 828 828 830 831 832 832 832 832 831 830 829 827 826 822 817 813 810 807 803 797 790 786 782 776 771 768 765 765
795 799 800 803 805 806 809 813 815 817 819 821 823 824 824 823 824 827 827 829 829 829 829 828 827 827 826 824 820 815 811 809 806 802 796 791 785 780 773 766 762 762 761
792 792 794 797 800 803 804 807 810 812 815 817 817 819 819 819 819 822 824 826 826 826 826 825 826 825 824 820 816 813 812 808 803 799 794 790 785 777 770 763 760 760 760
782 784 787 790 794 796 798 799 803 806 809 811 813 813 813 814 815 817 819 822 821 822 823 822 823 822 822 817 816 813 810 807 803 798 794 789 784 777 769 764 761 761 763
775 776 779 782 786 788 791 792 795 798 802 805 807 808 808 809 809 812 814 817 817 818 818 819 820 820 819 815 815 812 809 805 801 795 791 789 784 778 774 770 768 765 765
769 770 771 773 776 780 784 786 788 790 794 799 801 802 803 805 805 807 809 813 813 814 814 815 815 816 814 813 812 809 807 804 800 796 792 789 786 782 779 775 773 772 770
764 764 764 766 768 771 774 777 780 782 787 792 796 797 798 799 800 801 804 807 810 811 810 810 812 811 811 808 808 804 803 803 800 798 794 791 788 786 784 781 780 777 776
759 758 757 758 759 762 764 767 771 773 777 783 787 788 790 792 793 796 799 802 806 808 807 808 807 807 806 805 804 801 799 798 798 796 792 789 788 786 785 784 782 781 781
753 753 752 750 751 753 757 759 760 761 765 771 776 778 781 784 786 790 793 797 801 803 802 803 803 802 802 800 799 797 795 793 792 792 790 787 785 785 783 782 781 779 779
746 745 746 745 744 746 748 750 751 750 752 761 766 769 772 775 779 782 786 792 794 795 797 798 797 797 795 794 791 790 790 789 788 787 785 783 782 781 780 780 780 779 778
740 738 739 739 740 739 741 743 746 749 748 753 761 764 765 768 772 777 781 786 789 791 793 792 790 789 787 786 785 784 783 784 784 783 782 780 778 777 776 776 776 776 775
737 733 732 733 732 734 734 734 735 738 746 751 754 761 762 764 767 771 776 781 786 788 789 786 784 783 782 781 780 779 778 777 778 780 778 777 776 775 775 773 772 771 769
737 731 728 728 728 728 729 729 729 732 737 744 749 755 756 760 763 767 772 777 780 782 781 779 777 776 776 776 775 773 773 772 773 773 773 772 771 771 770 769 768 767 766
734 729 725 724 723 723 723 723 725 725 727 733 739 744 747 752 758 761 765 769 770 772 771 771 771 770 769 769 769 769 768 767 766 766 765 765 766 766 764 763 762 761 761
727 724 723 719 717 716 717 716 717 716 719 718 723 728 735 745 749 751 755 759 762 763 762 760 759 760 761 762 762 762 761 761 761 761 761 760 759 759 758 757 756 755 753
725 720 716 714 712 710 709 711 713 713 711 710 714 718 722 729 734 738 743 747 750 753 754 753 751 751 751 753 754 754 754 753 753 753 753 753 753 752 751 751 750 749 747
731 724 717 712 709 707 705 704 709 708 709 708 707 711 717 722 724 727 732 735 738 741 742 743 742 742 741 742 743 743 745 746 746 745 745 745 745 745 745 745 743 741 740
739 732 725 719 717 713 710 707 710 710 709 708 709 711 715 718 720 724 728 729 730 732 734 735 736 735 736 737 737 738 737 737 737 738 738 737 738 738 738 737 735 734 733
748 742 736 732 726 724 721 719 719 718 716 716 716 720 722 723 726 729 730 731 732 734 734 734 735 734 734 734 733 732 732 732 732 732 731 731 730 730 731 730 728 727 727
756 752 746 741 738 736 733 733 731 727 726 725 725 726 726 728 730 731 731 731 732 731 731 731 733 732 730 730 730 728 727 725 726 727 726 725 724 724 723 722 721 721 721
762 759 757 755 751 747 744 742 739 737 737 736 735 736 736 736 736 735 736 735 737 736 733 732 732 731 728 723 723 721 718 718 718 719 721 721 719 717 717 716 716 714 715